Location: Hains Lake
(37.8540°N, 99.8578°W)
Time: 20:31:23
(UTC+00:00)

Vanguard 1 - Pass Details

Date: 22 April 2021
Orbit: 649 x 3834 km, 34.2° (Epoch: 04 May)

Event Time Altitude Azimuth Distance (km) Brightness Sun altitude
Rises 04:28:12 0° 283° (WNW) 7,949 15.4 -31.4°
Reaches altitude 10° 04:36:31 10° 268° (W) 6,915 14.7 -32.4°
Maximum altitude 04:49:05 18° 234° (SW) 5,801 13.9 -33.8°
Enters shadow 04:57:44 13° 205° (SSW) 5,667 13.6 -34.6°
